[[{"header":{"parameterUnit":"m.s-1","parameterCategory":1,"la1":30.2991,"la2":30.254,"lo1":-89.0895,"lo2":-89.0444,"dy":0.0017,"dx":0.0017,"nx":28,"ny":28,"refTime":"2023-10-29T09:00:00:Z","depth":0,"parameterNumber":2,"parameterNumberName":"U-component_of_WINDS"},"data":[0,0,0,0,0,0,0,0,0,0,0,0,0,0,0,0,0,0,0,0,0,0,0,0,0,0,0,0,0,0,0,0,0,0,0,0,0,0,0,0,0,0,0,0,0,0,0,0,0,0,0,0,0,0,0,0,0,0,-2.8851,-2.8851,0,-2.8848,-2.8848,-2.8848,-2.8795,-2.8794,-2.8792,-2.8791,-2.8786,-2.8787,-2.8788,0,0,0,0,0,0,0,0,0,0,0,0,0,-2.8812,-2.8813,-2.8851,-2.8851,-2.8851,-2.8848,-2.8848,-2.8848,-2.8795,-2.8794,-2.8792,-2.8791,-2.8785,-2.8787,-2.8788,0,0,0,0,0,0,0,0,0,0,0,0,0,-2.8821,-2.8813,-2.8851,-2.8824,-2.8822,-2.8848,-2.8848,-2.8848,-2.8796,-2.8794,-2.8792,-2.879,-2.8785,-2.8787,-2.8788,-2.8839,0,0,-2.8793,-2.8794,0,0,0,0,0,0,0,0,-2.882,-2.8822,-2.8828,-2.8826,-2.8823,-2.882,-2.8832,-2.8845,-2.8796,-2.8806,-2.8791,-2.8789,-2.8799,-2.8799,-2.8803,-2.8838,-2.8838,-2.8793,-2.8794,-2.8795,-2.8796,0,0,0,0,0,0,0,-2.882,-2.8822,-2.8849,-2.8828,-2.8825,-2.8813,-2.8812,-2.8834,-2.8813,-2.8805,-2.8801,-2.8801,-2.8797,-2.8801,-2.8802,-2.8838,-2.8793,-2.8795,-2.8796,-2.8797,-2.8918,-2.892,0,0,0,0,0,0,-2.8823,-2.8822,-2.8849,-2.8849,-2.8817,-2.8815,-2.8814,-2.8823,-2.8813,-2.8809,-2.8803,-2.8799,-2.8799,-2.88,-2.8802,-2.8861,-2.8795,-2.8797,-2.8798,-2.8916,-2.8918,-2.8921,0,0,0,0,0,0,-2.8822,-2.8826,-2.8849,-2.8835,-2.8837,-2.8818,-2.8828,-2.8824,-2.8828,-2.8812,-2.8808,-2.8811,-2.8798,-2.88,-2.8831,-2.886,-2.8797,-2.8799,-2.8913,-2.8916,-2.8919,-2.8978,0,0,0,0,0,0,-2.8821,-2.8826,-2.8844,-2.8835,-2.8838,-2.8878,-2.883,-2.8825,-2.8831,-2.8826,-2.8818,-2.8815,-2.8796,-2.8829,-2.8832,-2.8861,-2.88,-2.891,-2.8914,-2.8918,-2.8973,-2.8983,-2.8991,0,0,0,0,0,-2.882,-2.8859,-2.8845,-2.8849,-2.886,-2.888,-2.8881,-2.8859,-2.8834,-2.8852,-2.8843,-2.8815,-2.8857,-2.8832,-2.8836,-2.8865,-2.8908,-2.8913,-2.8918,-2.8969,-2.8981,-2.8991,0,0,0,0,0,0,-2.8869,-2.8857,-2.8841,-2.8879,-2.8881,-2.8871,-2.8892,-2.8872,-2.888,-2.8874,-2.8847,-2.8846,-2.8882,-2.8877,-2.885,-2.8915,-2.8878,-2.8884,-2.8916,-2.8927,-2.8936,-2.8934,-2.8802,0,0,0,0,0,-2.8885,-2.8902,-2.8891,-2.8926,-2.8928,-2.8911,-2.8918,-2.8902,-2.8903,-2.8903,-2.8895,-2.8896,-2.891,-2.8919,-2.893,-2.8975,-2.8972,-2.8997,-2.9006,-2.9014,-2.9018,-2.9042,-2.9053,-2.8937,-2.8937,-2.8937,0,0,-2.8916,-2.8913,-2.8924,-2.8936,-2.8935,-2.8954,-2.8911,-2.8932,-2.8945,-2.8905,-2.8934,-2.893,-2.8929,-2.8968,-2.8984,-2.8965,-2.9051,-2.902,-2.9026,-2.9026,-2.9049,-2.906,-2.907,-2.8941,-2.894,-2.8939,0,0,-2.8983,-2.8982,-2.9011,-2.9013,-2.9014,-2.9003,-2.9011,-2.9005,-2.9001,-2.903,-2.9001,-2.9018,-2.9041,-2.9043,-2.9047,-2.9121,-2.9096,-2.9126,-2.9171,-2.9195,-2.9204,-2.9212,-2.9238,-2.9248,-2.9131,-2.9131,-2.9132,0,-2.9021,-2.9048,-2.9028,-2.9052,-2.9058,-2.9027,-2.9057,-2.9059,-2.9064,-2.9069,-2.9049,-2.908,-2.9077,-2.9116,-2.9135,-2.914,-2.9147,-2.9124,-2.9205,-2.9213,-2.922,-2.9244,-2.9254,-2.9135,-2.9134,-2.9134,-2.9134,0,-2.9095,-2.9115,-2.9139,-2.9146,-2.9155,-2.9182,-2.9168,-2.918,-2.9166,-2.9158,-2.9189,-2.9187,-2.9198,-2.9207,-2.9191,-2.9245,-2.9233,-2.921,-2.9171,-2.9234,-2.9257,-2.9266,-2.914,-2.9139,-2.9138,-2.9137,0,0,-2.9185,-2.9187,-2.9195,-2.9199,-2.9201,-2.9216,-2.9243,-2.9256,-2.9267,-2.9273,-2.9295,-2.9319,-2.9298,-2.9303,-2.9289,-2.9311,-2.937,-2.9284,-2.9284,-2.9299,-2.9429,-2.9444,-2.9455,-2.9356,-2.9358,-2.9359,-2.9428,0,-2.9248,-2.9294,-2.928,-2.9326,-2.9344,-2.9318,-2.9342,-2.9346,-2.9341,-2.9357,-2.9352,-2.9368,-2.934,-2.9343,-2.9365,-2.9358,-2.9395,-2.9354,-2.9374,-2.9375,-2.9372,-2.9467,-2.9482,-2.9547,-2.9437,-2.9438,-2.9439,0,-2.9325,-2.9337,-2.9385,-2.9388,-2.9395,-2.9416,-2.9429,-2.9445,-2.945,-2.9445,-2.9454,-2.9437,-2.9464,-2.943,-2.9468,-2.944,-2.9449,-2.9448,-2.945,-2.9448,-2.9408,-2.9465,-2.9567,-2.9576,-2.9453,-2.9452,-2.9451,0,-2.9385,-2.9413,-2.9446,-2.9451,-2.9454,-2.947,-2.9473,-2.9477,-2.9487,-2.9499,-2.9505,-2.952,-2.9527,-2.9539,-2.9527,-2.9503,-2.9567,-2.9531,-2.9563,-2.9563,-2.9573,-2.9572,-2.9676,-2.9585,-2.9585,-2.9584,-2.9584,0,-2.9454,-2.9484,-2.9473,-2.9493,-2.9527,-2.9513,-2.9547,-2.9547,-2.9552,-2.9571,-2.9551,-2.957,-2.9554,-2.9572,-2.9564,-2.9597,-2.9601,-2.9597,-2.9593,-2.9597,-2.9597,-2.9599,-2.9593,-2.9587,-2.9586,-2.9586,-2.9586,0,-2.9523,-2.9518,-2.9552,-2.9555,-2.9556,-2.9581,-2.9583,-2.9602,-2.9599,-2.9625,-2.963,-2.9624,-2.9645,-2.9635,-2.9656,-2.9651,-2.9693,-2.9685,-2.9691,-2.9687,-2.9719,-2.9715,-2.9825,-2.9838,-2.9742,-2.9743,-2.9743,0,-2.9566,-2.9589,-2.9596,-2.9609,-2.9613,-2.9633,-2.9645,-2.9634,-2.9646,-2.9658,-2.9676,-2.9696,-2.971,-2.9745,-2.9742,-2.9759,-2.975,-2.9788,-2.9752,-2.9755,-2.9748,-2.9746,-2.9748,-2.9793,-2.9794,-2.9795,-2.9796,0,-2.9642,-2.9639,-2.9656,-2.9674,-2.9689,-2.9702,-2.9713,-2.9724,-2.9715,-2.973,-2.9752,-2.9764,-2.9789,-2.9808,-2.9825,-2.9827,-2.981,-2.9809,-2.9816,-2.9817,-2.9819,-2.9817,-2.9707,-2.9804,-2.9803,-2.9803,-2.9802,-2.9802,-2.9697,-2.9717,-2.9726,-2.9747,-2.9756,-2.9768,-2.9787,-2.9788,-2.9806,-2.9825,-2.9819,-2.9845,-2.9854,-2.9874,-2.988,-2.9901,-2.9886,-2.9897,-2.99,-2.9902,-2.9905,-2.982,-2.9904,-2.9904,-2.9903,-2.9903,-2.9903,0,-2.977,-2.9776,-2.9796,-2.9814,-2.9831,-2.9818,-2.9831,-2.9846,-2.9869,-2.988,-2.9897,-2.9924,-2.9944,-2.9946,-2.9966,-2.9982,-2.9975,-2.9987,-2.9984,-2.9985,-2.9918,-2.9908,-2.9993,-2.9993,-2.9993,-2.9993,-2.9993,-2.9993,-2.981,-2.9843,-2.9843,-2.9882,-2.9888,-2.9914,-2.9923,-2.9934,-2.9943,-2.9975,-2.9993,-2.9995,-3.0003,-3.0024,-3.0042,-3.0043,-3.005,-3.0065,-3.0062,-2.9998,-2.9989,-2.998,-2.9971,-3.0067,-3.0067,-3.0126,-3.0127,-3.0127]},{"header":{"parameterUnit":"m.s-1","parameterCategory":1,"la1":30.2991,"la2":30.254,"lo1":-89.0895,"lo2":-89.0444,"dy":0.0017,"dx":0.0017,"nx":28,"ny":28,"refTime":"2023-10-29T09:00:00:Z","depth":0,"parameterNumber":3,"parameterNumberName":"V-component_of_WINDS"},"data":[0,0,0,0,0,0,0,0,0,0,0,0,0,0,0,0,0,0,0,0,0,0,0,0,0,0,0,0,0,0,0,0,0,0,0,0,0,0,0,0,0,0,0,0,0,0,0,0,0,0,0,0,0,0,0,0,0,0,0.5598,0.5596,0,0.5426,0.5425,0.5423,0.531,0.5309,0.5308,0.5308,0.5131,0.5127,0.5123,0,0,0,0,0,0,0,0,0,0,0,0,0,0.5834,0.5831,0.5599,0.5596,0.5594,0.5427,0.5424,0.5422,0.531,0.5309,0.5308,0.5307,0.5132,0.5127,0.5123,0,0,0,0,0,0,0,0,0,0,0,0,0,0.5704,0.5829,0.5599,0.5518,0.5509,0.5427,0.5424,0.5421,0.531,0.5309,0.5308,0.5307,0.5134,0.5128,0.5122,0.5106,0,0,0.5103,0.5101,0,0,0,0,0,0,0,0,0.5712,0.5696,0.5532,0.5524,0.5513,0.5389,0.5443,0.5316,0.5311,0.5386,0.5308,0.5307,0.5217,0.5204,0.5175,0.5098,0.5091,0.5103,0.5099,0.5097,0.5095,0,0,0,0,0,0,0,0.5721,0.5702,0.553,0.553,0.5518,0.5492,0.5472,0.5418,0.531,0.5379,0.5371,0.5352,0.5212,0.5181,0.517,0.5088,0.5103,0.5098,0.5094,0.5092,0.4997,0.4998,0,0,0,0,0,0,0.5742,0.5711,0.5536,0.5525,0.5612,0.5489,0.5467,0.543,0.531,0.5291,0.5353,0.5347,0.5192,0.5177,0.5163,0.514,0.5097,0.5091,0.5088,0.4996,0.4997,0.4998,0,0,0,0,0,0,0.5748,0.5728,0.5543,0.5616,0.559,0.5486,0.5445,0.5427,0.5395,0.529,0.5271,0.534,0.519,0.5171,0.5123,0.5132,0.5088,0.5083,0.4994,0.4996,0.4998,0.5093,0,0,0,0,0,0,0.5755,0.573,0.5722,0.5616,0.5587,0.5504,0.5446,0.5424,0.5385,0.5376,0.5273,0.5255,0.5188,0.5133,0.5117,0.5123,0.5078,0.4993,0.4995,0.4997,0.5088,0.5097,0.5105,0,0,0,0,0,0.5764,0.5754,0.5722,0.5701,0.5573,0.5505,0.5488,0.5411,0.5386,0.5378,0.5312,0.5258,0.5135,0.5128,0.511,0.5114,0.4992,0.4995,0.4997,0.5084,0.5095,0.5105,0,0,0,0,0,0,0.586,0.5738,0.5701,0.5656,0.5592,0.5486,0.5472,0.5424,0.5365,0.5359,0.5266,0.5244,0.5206,0.5155,0.5151,0.5097,0.5057,0.5056,0.513,0.514,0.5148,0.516,0.5073,0,0,0,0,0,0.5877,0.5831,0.5727,0.5697,0.5667,0.5577,0.5543,0.5491,0.542,0.5392,0.5321,0.5256,0.5202,0.5168,0.5113,0.5082,0.506,0.5076,0.5085,0.5093,0.5092,0.5077,0.5084,0.5007,0.5007,0.5006,0,0,0.5909,0.5837,0.5813,0.5715,0.5659,0.5615,0.5554,0.5508,0.5475,0.5384,0.5335,0.5283,0.5203,0.5165,0.5144,0.5121,0.511,0.5096,0.5103,0.5098,0.508,0.5087,0.5094,0.5008,0.5008,0.5008,0,0,0.5946,0.5886,0.5857,0.5804,0.5721,0.5662,0.5656,0.5559,0.5521,0.547,0.5403,0.5364,0.5272,0.522,0.5182,0.5209,0.5159,0.5194,0.5237,0.5223,0.523,0.5235,0.5246,0.5252,0.5194,0.5195,0.5195,0,0.5996,0.5926,0.5848,0.5808,0.5769,0.5689,0.5661,0.5613,0.5517,0.5492,0.5469,0.5358,0.5298,0.5249,0.5256,0.5227,0.5219,0.5203,0.5235,0.5239,0.5243,0.5253,0.5258,0.5199,0.5199,0.5198,0.5198,0,0.5994,0.5948,0.5935,0.5847,0.5806,0.5773,0.5692,0.5661,0.5615,0.5559,0.5512,0.5439,0.537,0.5355,0.5307,0.5301,0.529,0.5253,0.5211,0.5256,0.5265,0.5268,0.5206,0.5205,0.5203,0.5202,0,0,0.6079,0.5955,0.5951,0.5913,0.582,0.5783,0.5749,0.5684,0.566,0.5599,0.5569,0.5499,0.5466,0.5422,0.5369,0.5357,0.5388,0.5322,0.5318,0.5338,0.538,0.5408,0.5414,0.5356,0.5356,0.5356,0.5387,0,0.6102,0.6035,0.5968,0.5926,0.5885,0.5812,0.5783,0.5725,0.5674,0.5633,0.5577,0.5529,0.5488,0.5463,0.5448,0.5387,0.5395,0.5384,0.5328,0.5327,0.5349,0.5418,0.5446,0.5478,0.539,0.539,0.539,0,0.6118,0.6064,0.6018,0.5936,0.5916,0.589,0.5829,0.579,0.5725,0.5689,0.5646,0.5591,0.5555,0.5521,0.5471,0.5465,0.544,0.5408,0.5407,0.5397,0.536,0.5411,0.5486,0.5491,0.5394,0.5394,0.5394,0,0.6187,0.6103,0.6066,0.6035,0.5937,0.5922,0.5881,0.5814,0.5782,0.5729,0.5707,0.5651,0.5619,0.5578,0.5511,0.5492,0.547,0.5429,0.544,0.5442,0.5436,0.5437,0.5509,0.5421,0.5421,0.5421,0.5421,0,0.6219,0.6194,0.6096,0.6073,0.6046,0.5972,0.5947,0.5899,0.5843,0.5811,0.5746,0.5718,0.5632,0.5595,0.5543,0.5511,0.5497,0.5469,0.5455,0.5474,0.5478,0.5454,0.5451,0.5422,0.5422,0.5422,0.5421,0,0.6289,0.6222,0.6178,0.6092,0.607,0.6054,0.5981,0.5958,0.5907,0.5869,0.5856,0.5775,0.5729,0.566,0.5592,0.5557,0.5535,0.5512,0.5557,0.5549,0.5565,0.5565,0.5623,0.5628,0.5538,0.5539,0.554,0,0.6312,0.6292,0.6207,0.6182,0.6144,0.6104,0.6073,0.6001,0.5971,0.59,0.5886,0.5836,0.5791,0.5722,0.5658,0.5608,0.5584,0.5608,0.5575,0.5597,0.5585,0.5587,0.5587,0.5615,0.5616,0.5617,0.5618,0,0.6362,0.6333,0.6289,0.6237,0.6201,0.6156,0.6107,0.6091,0.601,0.598,0.5934,0.59,0.5834,0.5786,0.5729,0.5687,0.564,0.563,0.563,0.5649,0.5676,0.5663,0.5578,0.5628,0.5627,0.5626,0.5626,0.5625,0.641,0.6391,0.633,0.6286,0.6243,0.6202,0.6178,0.6127,0.6087,0.6028,0.599,0.5947,0.5889,0.5807,0.577,0.5736,0.5715,0.5715,0.5715,0.5716,0.5724,0.5684,0.5725,0.5725,0.5725,0.5724,0.5724,0,0.6457,0.6417,0.6377,0.6314,0.6281,0.6243,0.619,0.6165,0.6128,0.6078,0.6038,0.5989,0.5944,0.588,0.5831,0.5817,0.5795,0.5807,0.5806,0.5799,0.5744,0.575,0.5826,0.5826,0.5826,0.5826,0.5826,0.5826,0.6478,0.6446,0.6411,0.6359,0.6318,0.6277,0.6251,0.6214,0.6174,0.6122,0.6086,0.6045,0.5991,0.5939,0.5898,0.5881,0.5866,0.5885,0.5861,0.5811,0.5802,0.5793,0.5797,0.5882,0.5883,0.5918,0.5919,0.5919]}]]